RH
17 15 15 13 12 11 11 10 9 8 8 7 7 6 6 5 5 5 6 7 8 11 18 25 27 30 30 29 35 43 34 22 33 34 44 49 51 47 39 36 36 39 34 38 44
18 15 15 14 13 12 11 10 10 9 9 8 7 7 6 5 5 5 6 5 6 10 15 22 29 31 34 36 37 36 25 27 32 35 41 51 55 51 46 44 39 39 37 37 40
19 16 14 14 13 13 11 11 10 10 9 8 7 7 6 6 5 4 5 4 5 9 13 20 29 35 38 31 30 28 23 30 34 40 42 46 47 50 42 46 38 36 33 38 42
19 17 14 14 13 13 12 11 11 11 8 6 6 6 6 6 8 7 4 3 4 7 12 16 25 32 31 27 26 31 34 38 32 40 46 44 35 26 50 39 34 36 34 38 40
18 18 15 14 12 14 13 11 12 10 5 4 4 4 5 6 7 6 3 3 4 6 10 15 25 28 26 24 24 37 39 33 35 43 37 34 30 31 30 32 35 35 36 36 39
17 19 16 14 12 14 14 12 12 10 5 5 3 3 4 8 7 6 4 3 4 7 10 16 27 27 26 23 31 37 40 36 37 31 31 35 32 28 32 32 36 38 40 41 45
15 18 17 14 13 13 14 12 13 11 6 8 3 2 6 8 8 6 5 4 5 7 10 19 20 19 24 25 33 38 40 36 37 42 32 33 29 27 32 34 40 43 46 45 46
14 17 18 14 14 13 15 13 13 11 8 9 7 3 11 6 8 6 6 4 7 7 11 20 15 18 24 28 39 37 37 39 41 35 36 56 43 33 36 38 42 45 48 48 46
14 15 18 15 14 13 15 14 13 11 9 11 10 10 17 5 8 6 7 5 6 7 15 17 14 15 21 25 37 35 33 38 44 34 51 46 45 38 35 34 38 40 43 45 44
14 14 17 16 14 14 15 15 14 12 10 11 11 11 11 8 10 6 6 6 6 10 14 14 14 16 21 24 27 30 32 29 38 39 36 53 58 30 35 35 37 39 39 41 43
14 14 16 17 14 13 15 17 23 24 16 12 21 13 12 11 9 7 7 8 8 12 13 13 14 17 20 21 22 24 25 31 28 38 38 41 54 29 36 36 38 38 35 39 40
15 14 16 16 14 13 16 21 22 19 13 11 13 14 14 13 8 7 7 8 11 12 12 17 16 17 18 19 21 19 20 26 29 33 34 41 48 39 35 36 36 39 36 36 38
16 14 16 16 15 14 17 19 18 19 17 12 11 12 13 11 9 8 8 9 11 10 11 13 15 20 19 18 18 19 18 17 24 31 31 42 46 46 35 32 34 35 38 38 35
16 15 16 17 15 16 18 21 20 19 17 12 10 10 13 10 12 10 8 9 10 10 11 11 10 12 15 16 14 18 19 19 20 29 32 32 32 51 48 34 29 31 33 37 38
16 15 15 15 15 16 18 20 19 19 20 11 11 11 12 9 11 10 8 11 11 10 11 11 14 13 14 18 19 22 21 20 21 23 30 37 35 46 44 61 37 26 31 36 39
16 15 16 16 17 16 18 22 23 21 19 18 15 12 13 9 10 10 9 11 12 12 11 17 16 14 16 19 19 27 28 28 29 26 28 34 47 28 42 54 58 47 33 31 36
16 15 17 15 17 18 21 26 28 25 17 20 16 12 12 9 13 11 10 12 14 15 13 20 18 17 19 20 22 22 26 29 28 29 29 28 25 33 29 37 36 40 38 34 36
16 16 16 16 15 16 22 26 32 25 24 20 15 13 11 11 13 11 10 13 17 17 19 23 19 19 19 21 23 23 23 23 28 23 22 26 28 23 22 29 36 31 47 46 44
15 17 18 17 16 16 22 25 26 28 24 21 18 15 13 13 14 15 12 14 15 15 19 20 20 20 21 21 23 25 22 20 18 22 22 22 23 25 29 20 17 25 32 51 45
15 17 18 20 17 18 22 22 32 31 38 35 30 16 16 16 15 16 16 16 16 19 18 18 20 20 19 20 22 25 24 22 21 23 25 23 23 22 33 31 26 21 21 28 48
16 20 22 20 20 21 19 19 29 36 34 33 33 24 15 15 16 16 20 19 20 18 19 18 18 21 21 21 23 23 26 26 24 29 27 24 24 26 30 30 29 29 24 26 37
20 20 23 23 21 23 20 21 31 35 31 25 28 33 20 16 17 16 17 19 19 19 18 17 19 22 22 22 21 21 23 25 27 30 27 25 26 28 30 30 31 29 31 29 38
22 22 23 24 23 24 23 21 35 41 33 29 25 29 30 19 17 16 16 16 18 18 18 17 17 20 22 24 21 21 22 24 24 25 37 34 31 30 30 32 27 27 29 36 35
22 23 20 26 25 37 36 27 35 38 36 34 31 39 35 29 20 18 16 17 19 19 18 20 18 18 19 20 24 27 23 24 24 29 28 33 30 37 34 41 32 26 28 31 40
29 29 42 34 28 36 43 42 34 41 32 32 32 29 34 32 25 24 19 20 22 22 20 18 24 24 22 19 20 21 24 23 26 26 30 28 38 37 38 38 28 22 22 26 31
34 36 33 36 42 38 41 38 37 40 45 34 35 33 37 37 42 27 25 26 31 26 21 24 26 27 25 22 18 20 22 23 26 26 26 26 29 35 37 30 24 25 22 22 25
35 32 33 33 28 33 36 43 44 37 40 42 41 43 35 43 42 39 35 41 45 40 26 33 27 30 30 26 23 23 23 23 25 27 30 29 33 36 37 33 28 22 21 20 22